Lid_Strength_Index
2 4 5 6 10 10 12 11 8 9 9 7 6 7 8 7 8 12 2 1 1 0 -0 -1 -1 -1 -1 -1 -1 -1 -0 -0 0 0 0 0 0 0 -0 0 0 -0 -0 -0 -1 -1 -1 -1 -1
5 5 6 7 12 13 13 9 9 9 7 6 7 7 9 8 4 4 3 1 0 0 -0 -1 -1 -2 -1 -1 -1 -0 0 0 1 1 1 1 1 0 0 0 0 0 0 -0 -1 -1 -1 -1 -1
4 5 9 10 11 13 12 10 9 8 7 7 8 8 8 7 4 4 1 1 0 0 -0 -1 -1 -1 -1 -1 -0 -0 1 1 1 1 1 1 1 1 1 1 1 1 0 -0 -1 -1 -1 -1 -1
6 7 9 13 13 11 11 10 9 8 8 7 8 8 5 3 4 2 1 1 1 0 0 -1 -2 -1 -1 -0 0 1 1 2 1 1 1 1 1 1 1 1 2 1 0 -0 -1 -1 -1 -1 -1
7 8 12 13 12 11 11 10 10 10 9 8 8 8 7 3 1 1 1 1 1 0 -0 -1 -2 -1 -1 -0 0 1 2 2 2 2 2 2 2 2 2 2 1 1 0 0 -0 -0 -0 -0 -0
9 9 13 14 12 11 11 11 10 11 10 8 10 9 7 2 2 2 1 1 0 1 -0 -0 -0 -1 -1 -0 1 2 2 2 2 3 3 3 3 3 3 2 2 2 1 1 1 1 0 0 0
9 10 13 13 12 12 11 9 11 11 11 10 8 10 6 4 2 2 1 1 1 1 0 0 1 1 1 1 1 2 2 2 3 3 4 5 5 4 4 4 3 2 2 2 1 1 1 1 1
9 10 12 12 13 12 10 10 9 10 11 8 7 10 8 4 2 2 1 1 1 1 0 1 2 2 3 4 3 2 2 3 4 5 6 5 5 4 5 4 4 3 2 2 2 2 1 1 0
8 12 14 12 12 12 10 11 9 9 10 10 7 7 4 2 2 2 3 3 2 1 1 1 2 2 3 4 5 3 3 4 4 4 5 5 6 6 6 5 5 3 2 2 1 1 1 0 1
11 13 12 11 11 12 10 11 10 11 11 11 9 4 3 3 3 4 4 4 3 2 2 2 2 3 3 4 6 6 5 5 5 5 6 6 7 7 6 5 4 3 3 2 1 1 0 2 3
11 13 10 11 10 11 11 11 10 12 12 11 10 6 4 4 4 4 4 3 3 2 2 2 3 3 4 6 7 7 6 6 6 6 6 6 6 6 6 5 5 5 4 4 3 3 3 2 2
12 10 10 10 10 11 12 11 11 12 11 10 10 8 4 5 4 4 4 3 3 2 2 2 3 4 5 6 7 7 6 6 6 6 6 7 7 7 6 6 5 5 5 4 4 3 2 2 1
11 10 10 10 11 11 10 12 12 12 11 10 9 9 6 4 4 3 3 2 2 2 2 2 3 4 6 7 7 6 6 7 7 7 6 6 7 7 6 5 5 5 4 4 4 3 2 2 1
10 10 10 10 10 11 12 12 12 11 10 11 10 11 10 7 5 4 3 3 3 2 2 3 4 5 7 7 7 6 6 7 7 7 7 6 7 6 6 6 5 4 4 4 3 3 2 2 1
10 13 12 12 11 11 11 13 13 10 11 11 11 11 11 10 8 5 3 3 2 2 2 3 4 5 7 7 7 6 7 7 7 7 6 6 6 6 6 6 5 5 4 3 3 1 2 2 1
13 13 16 12 11 12 13 16 12 11 12 12 12 12 11 10 10 8 4 2 2 3 3 3 4 6 7 7 7 6 7 7 7 7 7 6 6 6 6 5 6 5 3 4 3 2 3 2 2
14 18 15 13 12 12 13 15 12 12 13 14 13 12 12 11 10 9 5 3 2 2 3 4 5 6 7 7 6 7 7 7 7 7 7 6 6 5 6 5 5 4 3 3 3 2 3 2 2
16 16 15 16 14 14 15 15 12 11 12 13 12 12 12 11 11 8 5 3 2 2 3 4 5 6 7 7 7 7 7 7 7 7 6 6 6 5 6 5 5 5 3 4 2 2 2 2 2
14 15 16 15 14 15 15 14 13 12 12 12 12 11 11 11 10 7 5 3 3 3 3 4 5 7 7 8 8 8 8 8 7 7 6 6 6 5 6 5 5 5 4 3 2 2 3 3 2
14 15 16 14 13 14 15 15 13 13 13 12 12 12 11 11 11 8 6 4 4 4 3 4 5 6 7 8 7 7 7 7 7 7 6 6 6 6 6 6 5 5 4 3 3 2 3 3 3
14 15 16 16 14 14 15 17 15 13 12 12 12 11 11 10 11 11 11 10 8 4 4 4 5 6 7 7 8 8 8 8 8 8 7 6 6 6 6 6 5 5 5 4 3 3 3 4 4
17 13 13 14 16 19 16 22 16 14 14 13 12 12 11 11 10 10 11 10 9 5 4 4 6 6 7 8 8 9 9 9 8 8 7 7 6 6 6 6 5 5 5 4 3 3 2 3 4
15 14 14 15 17 17 18 20 17 15 15 13 12 12 11 11 11 11 9 8 7 5 5 5 6 7 7 8 8 8 9 8 8 8 8 7 7 6 6 5 5 5 5 3 3 3 3 3 3
12 14 14 15 17 22 18 19 19 16 14 13 13 12 11 11 11 10 8 7 6 5 5 6 7 7 8 7 7 8 9 9 9 8 8 8 7 7 7 6 6 5 5 4 3 3 3 3 2
12 15 19 20 22 22 17 19 18 15 13 13 13 11 10 10 9 9 9 7 6 5 5 6 6 7 7 8 8 9 9 8 8 8 8 8 7 7 7 6 6 6 5 4 3 3 3 3 4
14 13 18 22 21 19 18 20 18 14 14 13 12 11 10 9 9 9 8 7 6 6 6 6 7 7 7 8 8 9 8 8 8 8 8 8 7 7 7 6 6 5 4 4 3 4 3 3 4
14 16 12 17 20 19 17 16 14 13 14 14 13 12 10 9 8 8 7 7 6 6 6 7 7 7 7 8 9 9 9 8 8 8 7 8 7 7 7 6 6 5 5 4 4 4 4 3 4
13 11 17 17 22 21 19 17 15 15 14 13 13 14 12 9 8 8 7 6 6 6 6 6 6 7 8 8 9 9 9 8 8 8 8 8 8 8 7 7 6 5 4 5 4 4 4 4 4
14 15 14 14 15 19 21 17 11 10 11 13 13 13 12 10 9 8 7 6 6 6 6 7 7 8 9 9 9 9 9 8 8 8 8 8 8 7 7 6 6 6 5 5 4 4 5 5 5
11 13 13 16 19 17 17 17 12 11 11 10 12 12 12 10 9 9 7 6 6 6 7 7 7 8 9 9 9 9 9 9 9 8 8 8 8 7 7 7 7 6 5 5 5 6 6 5 5